This demonstration page uses our WeatherBlox Daily Observations layout. Learn more.

Left ArrowRight Arrow

38.83388, -104.82136

Hourly Observations for January 30, 2022

Temp ( °F °C ) Dew Point ( °F °C ) Humidity (%) Winds ( mph kmh ) Pressure ( in mb ) Visibility ( mi km ) Precip ( " mm )
12:58 am 00:58 Clear 38 3.1 1 -17.1 21 21 WSW 3 6 29.77 1008 10 16 0.00 0.00
1:58 am 01:58 Clear 38 3.6 -1 -18.6 18 18 Calm 29.78 1008 10 16 0.00 0.00
2:58 am 02:58 Clear 35 1.9 0 -17.6 22 22 Calm 29.78 1009 10 16 0.00 0.00
3:58 am 03:58 Clear 35 1.9 -1 -18.2 21 21 SSE 3 6 29.79 1009 10 16 0.00 0.00
4:58 am 04:58 Clear 34 1.2 -1 -18.2 22 22 Calm 29.79 1009 10 16 0.00 0.00
5:58 am 05:58 Clear 35 1.9 1 -17.1 23 23 E 3 6 29.79 1009 10 16 0.00 0.00
6:58 am 06:58 Clear 35 1.6 5 -15 28 28 ESE 7 11 29.80 1009 10 16 0.00 0.00
7:58 am 07:58 Sunny 33 0.6 4 -15.8 28 28 Calm 29.81 1009 10 16 0.00 0.00
8:58 am 08:58 Sunny 37 3 4 -15.6 24 24 N 3 6 29.80 1009 10 16 0.00 0.00
9:58 am 09:58 Sunny 40 4.3 3 -16.1 21 21 Calm 29.79 1009 10 16 0.00 0.00
10:58 am 10:58 Sunny 42 5.3 4 -15.3 21 21 NNE 3 6 29.79 1009 10 16 0.00 0.00
11:58 am 11:58 Sunny 43 6.1 5 -15.2 20 20 Calm 29.74 1007 10 16 0.00 0.00
12:58 pm 12:58 Sunny 45 7.4 5 -14.8 19 19 Calm 29.71 1006 10 16 0.00 0.00
1:58 pm 13:58 Sunny 46 7.6 7 -14 20 20 Calm 29.66 1004 10 16 0.00 0.00
2:58 pm 14:58 Sunny 45 7.2 6 -14.3 20 20 Calm 29.67 1005 10 16 0.00 0.00
3:58 pm 15:58 Sunny 43 6.2 8 -13.4 23 23 Calm 29.69 1005 10 16 0.00 0.00
4:58 pm 16:58 Sunny 42 5.7 3 -16.2 19 19 WSW 6 9 29.69 1005 10 16 0.00 0.00
5:58 pm 17:58 Clear 43 6 -2 -18.7 15 15 WSW 6 9 29.70 1006 10 16 0.00 0.00
6:58 pm 18:58 Clear 42 5.7 -2 -19 15 15 Calm 29.71 1006 10 16 0.00 0.00
7:58 pm 19:58 Clear 42 5.5 -1 -18.4 16 16 Calm 29.72 1007 10 16 0.00 0.00
8:58 pm 20:58 Clear 42 5.3 -4 -20.1 14 14 Calm 29.70 1006 10 16 0.00 0.00
9:58 pm 21:58 Clear 41 4.9 -2 -18.9 16 16 SW 5 7 29.69 1005 10 16 0.00 0.00
10:58 pm 22:58 Clear 40 4.5 -3 -19.2 16 16 WSW 8 13 29.67 1005 10 16 0.00 0.00
11:58 pm 23:58 Clear 40 4.6 -2 -19.1 16 16 Calm 29.64 1004 10 16 0.00 0.00

Powered by AerisWeather